FW8458 Weather Reports


Display with metric or nautical units.
time (UTC)temp
F
wind
direction
speed
MPH
gust
MPH
rain 1hr
in
rain 24hr
in
rain mn
in
humidity
%
barometer
mb
20260504081039 37 0.0 0.0 0.00 0.00 0.00 90
20260504045019 43 296 0.0 0.0 0.00 0.00 0.00 82
20260504044019 44 0.0 0.0 0.00 0.00 0.00 81
20260504043019 44 0.0 0.0 0.00 0.00 0.00 79
20260504042019 45 0.0 0.0 0.00 0.00 0.00 78
20260504041020 45 0.0 0.0 0.00 0.00 0.00 76
20260504040037 45 0.0 0.0 0.00 0.00 0.00 75
20260504035040 46 0.0 0.0 0.00 0.00 0.00 75
20260504034020 46 0.0 0.0 0.00 0.00 0.00 75
20260504033020 46 0.0 0.0 0.00 0.00 0.00 74
20260504032017 46 330 0.0 1.0 0.00 0.00 0.00 73
20260504031017 46 0.0 0.0 0.00 0.00 0.00 73
20260504030018 46 0.0 0.0 0.00 0.00 0.00 72
20260504025021 46 0.0 0.0 0.00 0.00 0.00 72
20260504024021 46 0.0 0.0 0.00 0.00 0.00 72
20260504023020 46 0.0 0.0 0.00 0.00 0.00 71
20260504022018 46 318 0.0 2.0 0.00 0.00 0.00 70
20260504021018 46 0.0 0.0 0.00 0.00 0.00 71
20260504020019 46 0.0 0.0 0.00 0.00 0.00 69
20260504015039 47 0.0 0.0 0.00 0.00 0.00 68
20260504014019 48 0.0 0.0 0.00 0.00 0.00 66
20260504013019 49 0.0 0.0 0.00 0.00 0.00 63
20260504012042 50 0.0 0.0 0.00 0.00 0.00 57
20260504011021 51 2 0.0 2.0 0.00 0.00 0.00 53
20260504010020 52 357 0.0 2.0 0.00 0.00 0.00 52
20260504005020 51 291 2.0 4.0 0.00 0.00 0.00 53
20260504004017 51 294 2.0 9.0 0.00 0.00 0.00 56
20260504003017 50 223 0.0 1.0 0.00 0.00 0.00 59
20260504002017 51 0.0 0.0 0.00 0.00 0.00 58
20260504001020 51 0.0 0.0 0.00 0.00 0.00 56
20260504000021 52 0.0 0.0 0.00 0.00 0.00 53
20260503235019 53 0.0 0.0 0.00 0.00 0.00 49
20260503234021 54 296 0.0 2.0 0.00 0.00 0.00 46
20260503233018 55 214 1.0 4.0 0.00 0.00 0.00 46
20260503232019 54 266 0.0 2.0 0.00 0.00 0.00 46
20260503231039 54 229 1.0 4.0 0.00 0.00 0.00 45
20260503230039 54 248 2.0 4.0 0.00 0.00 0.00 46
20260503225019 55 264 2.0 7.0 0.00 0.00 0.00 46
20260503224019 55 258 3.0 6.0 0.00 0.00 0.00 45
20260503223019 55 312 3.0 8.0 0.00 0.00 0.00 44
20260503222041 55 286 2.0 8.0 0.00 0.00 0.00 45
20260503221017 55 266 4.0 9.0 0.00 0.00 0.00 44
20260503220017 56 302 4.0 11.0 0.00 0.00 0.00 44
20260503215020 55 300 5.0 10.0 0.00 0.00 0.00 44
20260503214020 55 278 4.0 8.0 0.00 0.00 0.00 45
20260503213040 54 312 4.0 10.0 0.00 0.00 0.00 46
20260503212017 54 296 5.0 9.0 0.00 0.00 0.00 46
20260503211018 54 268 5.0 12.0 0.00 0.00 0.00 46
20260503210018 54 327 5.0 10.0 0.00 0.00 0.00 45
20260503205018 54 311 4.0 10.0 0.00 0.00 0.00 44
20260503204020 54 300 7.0 13.0 0.00 0.00 0.00 42
20260503203019 55 292 5.0 10.0 0.00 0.00 0.00 42
20260503202020 55 269 6.0 13.0 0.00 0.00 0.00 41
20260503201019 54 292 3.0 8.0 0.00 0.00 0.00 41
20260503200019 54 285 5.0 11.0 0.00 0.00 0.00 40
20260503195019 54 273 4.0 8.0 0.00 0.00 0.00 41
20260503194019 53 312 5.0 11.0 0.00 0.00 0.00 40
20260503193017 53 340 3.0 7.0 0.00 0.00 0.00 41
20260503192017 53 319 4.0 11.0 0.00 0.00 0.00 40
20260503191022 53 330 5.0 10.0 0.00 0.00 0.00 40
20260503190020 53 299 6.0 12.0 0.00 0.00 0.00 40
20260503185101 54 276 5.0 11.0 0.00 0.00 0.00 40
20260503184039 53 285 6.0 10.0 0.00 0.00 0.00 39
20260503183017 53 297 6.0 10.0 0.00 0.00 0.00 39
20260503182019 52 321 6.0 11.0 0.00 0.00 0.00 40
20260503181019 51 297 6.0 11.0 0.00 0.00 0.00 41
20260503180018 51 324 5.0 11.0 0.00 0.00 0.00 41
20260503175018 51 315 5.0 9.0 0.00 0.00 0.00 41
20260503174018 51 283 5.0 11.0 0.00 0.00 0.00 42
20260503173020 50 308 6.0 13.0 0.00 0.00 0.00 42
20260503172019 50 278 6.0 12.0 0.00 0.00 0.00 41
20260503171039 49 320 5.0 11.0 0.00 0.00 0.00 41
20260503131020 44 301 4.0 9.0 0.00 0.00 0.00 56